Hourly Data Report for August 23, 2019

QUALICUM BEACH AIRPORT
BRITISH COLUMBIA
Current Station Operator: ECCC - MSC

49°20'14.000" N
124°23'38.000" W
58.20 m
1026562
71766
VOQ

Download Data

Hourly Data (August 2019)
Hourly Data Report for August 23, 2019
TIME
LST
Temp Definition
°C
Dew Point Definition
°C
Rel Hum Definition
%
Precip. Amount Definition
mm

Wind Dir Definition
10's deg

Wind Spd Definition
km/h
Visibility Definition
km
Stn Press Definition
kPa
Hmdx Definition


Wind Chill Definition


Weather Definition


00:00 12.8 9.1 78 0.0 17 3   100.86     LegendNANA
01:00 12.5 9.1 80 0.0 21 2   100.86     LegendNANA
02:00 11.5 8.9 84 0.0 17 2   100.82     LegendNANA
03:00 12.9 9.8 82 0.0 29 3   100.83     LegendNANA
04:00 14.5 10.6 77 0.0 30 4   100.88     LegendNANA
05:00 14.9 12.0 83 0.0 30 10   100.88     LegendNANA
06:00 15.2 11.8 80 0.0 31 8   100.93     LegendNANA
07:00 14.1 12.6 91 0.2 29 7   100.91     LegendNANA
08:00 14.2 12.5 90 0.1 0 1   100.90     LegendNANA
09:00 14.8 12.5 86 0.0 32 2   100.88     LegendNANA
10:00 16.0 12.7 81 0.0 32 3   100.85     LegendNANA
11:00 16.2 12.5 79 0.0 34 4   100.83     LegendNANA
12:00 15.9 12.6 81 0.0 7 6   100.79     LegendNANA
13:00 16.7 13.4 81 0.0 9 8   100.79     LegendNANA
14:00 18.5 14.1 75 0.0 9 5   100.74     LegendNANA
15:00 17.9 14.3 79 0.0 8 7   100.72     LegendNANA
16:00 18.2 14.1 77 0.0 10 11   100.67     LegendNANA
17:00 17.6 13.5 77 0.0 11 9   100.64     LegendNANA
18:00 18.1 13.9 76 0.0 9 5   100.61     LegendNANA
19:00 16.9 14.0 83 0.0 10 6   100.59     LegendNANA
20:00 15.3 13.5 89 0.0   0   100.61     LegendNANA
21:00 13.9 12.6 92 0.0   0   100.61     LegendNANA
22:00 13.6 12.5 94 0.0 28 1   100.59     LegendNANA
23:00 12.5 10.9 90 0.0 27 3   100.59     LegendNANA

Notes on Data Quality.

Legend

  • E = Estimated
  • M = Missing
  • NA = Not Available*
  • [empty] = Indicates an unobserved value
Date modified: